Norfolk, VA

8:20 PM EST on January 21, 2018 (GMT -0500)
Norfolk International

Weather History for KORF - September, 2012

Change the Weather History Date:

Thursday, September 27, 2012

  Actual Average Record
Temperature  
Mean Temperature 75 °F 69 °F  
Max Temperature 85 °F 76 °F 92 °F (1970)
Min Temperature 65 °F 61 °F 50 °F (1963)
Degree Days  
Heating Degree Days 0 1  
Month to date heating degree days 4 5  
Since 1 July heating degree days 4 5  
Cooling Degree Days 10 5  
Month to date cooling degree days 221 217  
Year to date cooling degree days 1769 1552  
Growing Degree Days 24 (Base 50)    
Moisture  
Dew Point 61 °F    
Average Humidity 70    
Maximum Humidity 93    
Minimum Humidity 47    
Precipitation  
Precipitation 0.00 in 0.15 in 2.86 in (1985)
Month to date precipitation 1.19 4.35  
Year to date precipitation 33.87 36.29  
Snow  
Snow 0.00 in 0.00 in 0.00 in (2002)
Month to date snowfall 0.0 0.0  
Since 1 July snowfall 0.0 0.0  
Snow Depth 0.00 in    
Sea Level Pressure  
Sea Level Pressure 30.14 in    
Wind  
Wind Speed 7 mph (South)    
Max Wind Speed 13 mph    
Max Gust Speed 17 mph    
Visibility 10 miles    
Events      
T = Trace of Precipitation, MM = Missing Value Source: NWS Daily Summary

Daily Weather History Graph

Daily Weather History Graph

Search for Another Location

Airport or City:

Trip Planner

Search our weather history database for the weather conditions in past years. The results will help you decide how hot, cold, wet, or windy it might be!

Date:

Astronomy

Sep. 27, 2012 Rise Set
Actual Time 6:57 AM EDT 6:53 PM EDT
Civil Twilight 6:31 AM EDT 7:19 PM EDT
Nautical Twilight 6:01 AM EDT 7:49 PM EDT
Astronomical Twilight 5:30 AM EDT 8:19 PM EDT
Moon 5:21 PM EDT (9/27) 4:26 AM EDT (9/27)
Length of Visible Light 12h 47m
Length of Day
11h 56m
Waxing Gibbous, 94% of the Moon is Illuminated
Sep 27
Waxing Gibbous
Sep 29
Full
Oct 8
Last Quarter
Oct 15
New
Oct 21
First Quarter

Hourly Weather History & Observations

Time (EDT) Temp. Heat Index Dew Point Humidity Pressure Visibility Wind Dir Wind Speed Gust Speed Precip Events Conditions
12:51 AM 66.9 °F - 60.1 °F 79% 30.16 in 10.0 mi SW 10.4 mph - N/A   Clear
1:51 AM 66.9 °F - 61.0 °F 81% 30.17 in 10.0 mi SW 8.1 mph - N/A   Clear
2:51 AM 66.0 °F - 61.0 °F 84% 30.15 in 10.0 mi SW 10.4 mph - N/A   Clear
3:51 AM 66.9 °F - 61.0 °F 81% 30.14 in 10.0 mi SW 8.1 mph - N/A   Clear
4:51 AM 66.0 °F - 61.0 °F 84% 30.14 in 10.0 mi SW 9.2 mph - N/A   Clear
5:51 AM 66.9 °F - 61.0 °F 81% 30.14 in 10.0 mi SW 10.4 mph - N/A   Clear
6:51 AM 64.9 °F - 61.0 °F 87% 30.16 in 10.0 mi WSW 3.5 mph - N/A   Clear
7:51 AM 64.9 °F - 62.1 °F 90% 30.17 in 10.0 mi South 3.5 mph - N/A   Clear
8:51 AM 70.0 °F - 62.1 °F 76% 30.18 in 10.0 mi WSW 3.5 mph - N/A   Clear
9:51 AM 73.0 °F - 62.1 °F 68% 30.19 in 10.0 mi South 4.6 mph - N/A   Clear
10:51 AM 77.0 °F - 62.1 °F 60% 30.19 in 10.0 mi WSW 4.6 mph - N/A   Clear
11:51 AM 79.0 °F - 62.1 °F 56% 30.18 in 10.0 mi NE 3.5 mph - N/A   Clear
12:51 PM 80.1 °F 80.9 °F 60.1 °F 50% 30.17 in 10.0 mi North 4.6 mph - N/A   Clear
1:51 PM 82.9 °F 83.2 °F 60.1 °F 46% 30.14 in 10.0 mi NNE 6.9 mph - N/A   Clear
2:51 PM 84.0 °F 84.5 °F 62.1 °F 47% 30.11 in 10.0 mi ESE 6.9 mph - N/A   Clear
3:51 PM 82.9 °F 83.3 °F 61.0 °F 47% 30.09 in 10.0 mi SSE 9.2 mph - N/A   Clear
4:51 PM 82.0 °F 82.4 °F 60.1 °F 47% 30.09 in 10.0 mi SE 8.1 mph - N/A   Clear
5:51 PM 81.0 °F 81.6 °F 60.1 °F 49% 30.09 in 10.0 mi SSE 9.2 mph - N/A   Clear
6:51 PM 77.0 °F - 57.9 °F 52% 30.10 in 10.0 mi SSE 6.9 mph - N/A   Clear
7:51 PM 75.0 °F - 59.0 °F 57% 30.10 in 10.0 mi SSE 5.8 mph - N/A   Clear
8:51 PM 73.0 °F - 61.0 °F 66% 30.12 in 10.0 mi South 6.9 mph - N/A   Clear
9:51 PM 71.1 °F - 62.1 °F 73% 30.12 in 10.0 mi South 6.9 mph - N/A   Clear
10:51 PM 70.0 °F - 63.0 °F 78% 30.12 in 10.0 mi South 6.9 mph - N/A   Clear
11:51 PM 69.1 °F - 64.0 °F 84% 30.11 in 10.0 mi South 5.8 mph - N/A   Clear